Theta_e
304 304 304 305 300 305 307 307 303 306 310 310 310 314 316 319 324 324 326 324 327 329 329 327 325 327 318 316 318 319 319 324 325 325 325 322 323 324 325 328 329 329 327 329 334
302 303 303 304 304 300 306 307 304 303 308 310 310 311 316 317 320 325 325 325 326 327 329 326 326 320 317 317 317 316 318 320 320 322 322 322 324 324 328 327 327 327 327 331 334
303 303 303 302 303 301 304 307 305 304 308 309 310 310 316 317 320 325 324 324 324 323 326 327 324 317 317 317 316 313 317 316 320 323 324 322 323 325 326 325 325 325 326 334 334
302 302 303 303 302 303 298 307 307 305 306 308 310 312 317 317 324 324 325 324 322 323 328 323 322 319 316 316 315 314 313 318 322 324 322 322 324 325 326 326 324 322 325 332 334
302 302 302 302 302 303 298 305 307 307 305 307 309 311 315 317 320 322 324 326 325 323 326 323 320 322 320 315 314 314 318 320 321 322 323 324 324 324 326 325 325 325 326 328 331
302 302 302 302 302 303 298 305 307 306 305 309 310 312 314 317 318 318 322 326 327 327 325 325 319 323 321 318 316 317 319 319 319 320 323 323 323 325 325 325 326 326 326 326 325
301 302 302 302 302 304 299 305 306 305 306 309 310 310 316 316 316 318 319 324 324 323 322 322 322 324 319 318 317 319 319 316 318 318 320 322 324 322 325 326 326 327 325 324 324
300 302 302 302 302 303 300 305 306 304 305 306 310 310 316 316 316 318 321 322 323 324 322 323 321 320 318 317 316 318 319 321 316 317 318 320 328 321 324 326 328 327 326 324 324
301 302 302 302 303 302 301 305 305 302 303 305 309 307 315 315 315 317 320 321 322 324 324 324 316 315 317 318 319 315 324 318 318 315 316 321 325 319 323 328 328 328 326 325 325
303 303 303 302 303 300 304 304 303 305 307 309 309 313 314 315 314 316 318 321 320 321 319 317 315 316 314 322 330 317 315 317 320 317 315 317 317 313 321 327 327 328 327 326 325
304 303 303 302 301 303 304 303 304 306 305 308 308 312 315 315 315 315 318 318 318 319 321 316 318 320 318 321 321 316 313 319 313 312 315 317 317 312 314 323 326 327 328 327 325
304 303 302 303 300 304 304 305 304 303 302 308 312 314 315 315 314 315 317 316 316 320 317 320 322 317 314 314 319 314 316 314 312 310 314 314 315 312 310 313 320 325 328 328 327
304 303 302 300 304 304 305 304 305 304 305 306 310 314 315 315 315 314 316 315 315 317 320 324 320 314 314 313 314 316 320 316 315 310 308 311 315 310 310 311 314 318 324 328 328
303 302 301 303 303 306 306 305 306 305 309 308 309 312 314 315 315 314 315 315 315 316 316 319 314 315 314 315 313 312 312 313 312 315 317 307 320 310 309 308 308 314 317 322 326
302 302 301 303 306 306 307 306 306 305 314 306 309 310 313 315 314 315 315 314 313 313 314 313 317 315 317 316 310 313 311 315 313 312 312 310 312 311 304 307 307 309 315 319 321
300 301 303 304 305 305 306 305 306 310 311 309 307 312 312 312 313 314 314 313 311 310 310 311 311 315 314 311 310 308 309 308 308 311 314 310 310 311 307 308 308 308 312 316 317
303 303 303 304 305 306 305 306 309 310 307 309 309 312 311 313 314 314 314 313 315 313 314 310 309 311 313 315 312 310 314 316 318 314 316 303 308 310 309 305 306 306 311 313 313
303 303 304 305 307 305 305 305 306 306 306 307 311 310 312 312 311 315 314 315 312 313 312 313 314 310 312 315 313 312 311 317 319 315 311 304 310 311 305 306 305 306 308 309 310
303 304 303 304 303 303 304 304 305 304 305 306 309 312 311 309 311 313 315 314 313 311 315 315 313 309 311 311 312 314 315 309 307 300 309 307 306 305 302 302 304 307 307 308 309
302 302 302 303 302 304 302 302 305 303 302 304 312 311 314 312 313 313 314 312 312 309 310 311 313 310 309 312 310 312 309 317 314 309 311 307 305 311 306 308 303 305 306 308 309
302 302 302 303 302 302 300 302 304 303 302 304 306 311 313 313 311 313 312 311 311 309 308 309 312 312 310 310 313 311 314 314 313 308 313 312 310 301 305 305 306 304 307 308 309
302 294 301 302 299 291 302 302 304 304 304 305 304 306 311 312 311 311 312 311 310 309 311 310 311 313 312 308 308 308 312 312 318 313 303 307 312 301 301 302 303 305 308 309 310
301 300 301 302 295 292 297 303 305 305 304 304 305 305 305 309 312 310 310 309 309 310 311 310 311 313 314 312 308 309 307 312 305 307 308 315 315 299 302 304 305 304 306 308 309
300 292 300 300 298 295 291 297 301 304 304 304 305 305 306 306 309 311 311 309 309 310 309 309 309 310 312 310 310 310 306 309 312 313 309 312 305 302 304 305 306 304 306 308 309
299 292 292 288 292 296 298 299 302 303 303 304 302 305 305 305 306 307 309 309 308 309 309 308 310 307 306 306 308 310 309 306 309 312 315 314 307 304 303 303 305 307 307 307 307
299 295 294 294 295 296 296 295 300 302 303 303 303 305 306 305 306 306 307 307 310 308 310 308 308 306 304 306 307 308 309 309 308 308 305 304 305 302 304 303 305 307 308 308 307
299 299 297 295 293 292 291 298 301 301 303 303 303 304 306 307 305 305 305 305 306 309 308 308 306 307 309 303 307 307 305 308 309 308 309 312 309 304 304 303 304 306 307 308 309
Wind_Speed
24 26 26 26 24 20 24 23 25 21 23 25 22 26 22 25 19 31 42 36 42 35 32 25 21 21 12 10 9 6 3 3 5 7 4 16 5 11 9 16 9 10 5 12 29
25 28 27 25 26 21 23 24 24 23 25 25 27 27 22 25 22 41 39 32 36 40 29 28 22 17 12 9 8 5 4 8 5 7 6 17 10 18 9 11 5 12 10 21 31
26 26 26 25 25 23 23 24 23 23 24 25 26 25 23 19 25 36 41 36 38 25 27 31 21 19 11 9 9 7 6 4 3 7 16 18 12 13 16 3 13 24 20 31 33
28 27 25 25 24 25 24 22 25 24 24 28 25 26 24 23 11 20 40 38 39 37 35 21 20 19 8 7 9 5 4 4 1 6 12 15 18 9 19 7 15 18 21 36 35
27 26 26 24 23 24 23 23 23 25 25 30 26 29 18 28 24 9 32 44 38 41 27 23 19 17 7 7 6 4 3 3 2 6 7 18 13 10 18 6 13 17 25 36 35
28 25 24 22 22 22 24 22 22 27 24 21 24 30 33 23 13 14 15 30 35 34 25 15 8 15 11 5 3 1 5 4 1 4 9 7 5 13 17 9 16 20 27 33 31
27 24 22 21 22 21 22 20 22 28 23 16 22 17 20 28 19 17 18 27 29 30 23 24 26 15 15 6 8 6 1 3 2 3 4 11 2 7 16 15 21 24 28 31 29
25 23 21 20 20 19 21 20 22 29 24 23 18 26 10 27 20 20 24 27 31 31 27 33 25 13 4 19 10 5 1 2 2 5 4 5 13 5 16 23 25 26 30 30 30
23 21 19 18 18 19 18 21 23 29 23 24 23 21 7 33 23 21 24 26 26 28 30 36 25 9 6 8 6 2 5 4 2 1 3 4 4 6 16 23 26 29 31 32 30
22 19 17 14 16 17 18 21 28 16 17 13 27 15 19 19 26 23 19 28 20 30 24 12 7 5 3 11 16 6 7 5 7 4 3 4 2 2 16 23 28 32 32 32 31
20 16 15 11 13 14 18 25 10 4 14 4 16 5 20 30 29 21 24 22 28 18 6 6 5 13 12 10 9 13 10 14 3 1 3 6 3 5 8 14 19 28 32 33 33
14 12 11 10 10 13 12 10 10 12 9 12 13 12 27 36 16 24 23 6 5 5 6 5 8 11 11 6 9 14 14 3 2 2 2 2 7 4 7 9 24 27 31 34 33
8 8 5 7 7 7 9 13 16 5 3 8 7 11 21 21 11 22 19 12 5 4 5 11 7 10 10 6 8 14 20 11 5 3 4 2 6 5 6 10 13 21 27 31 34
3 3 2 4 3 9 5 13 16 6 2 2 6 3 13 16 5 22 13 9 3 5 5 4 4 16 11 6 2 6 6 13 10 5 6 2 9 5 6 7 7 24 27 32 32
5 1 1 3 5 6 9 10 9 3 2 3 3 4 10 6 21 11 10 7 8 7 3 2 5 15 17 11 5 1 4 13 5 6 2 4 1 6 2 7 9 21 34 33 31
4 3 4 3 6 7 10 10 4 2 2 3 5 1 5 2 3 11 6 13 14 8 7 3 3 2 2 3 5 6 8 9 6 5 6 9 8 6 6 7 6 16 34 34 32
7 8 8 7 7 11 14 6 2 4 3 4 2 2 7 1 5 6 7 9 5 6 3 2 3 3 0 11 5 3 11 3 1 4 8 2 4 7 5 7 6 9 25 27 29
8 7 8 8 7 14 8 3 8 4 4 5 1 6 4 3 5 6 12 5 1 3 4 4 2 3 1 5 10 5 3 5 8 7 5 2 7 6 7 7 10 9 10 15 19
7 6 7 6 9 11 1 7 2 4 6 7 1 3 2 2 3 4 4 9 5 5 5 5 3 1 1 1 2 7 5 2 6 2 3 4 4 9 6 9 11 13 13 12 13
11 9 9 11 11 7 6 5 2 3 6 3 4 3 3 2 2 3 4 1 4 1 1 4 5 1 2 3 4 3 4 2 1 4 3 3 3 5 5 9 7 8 16 13 14
12 6 10 14 8 10 4 3 2 4 7 6 6 3 4 3 3 2 3 1 1 3 5 5 3 4 6 5 6 3 4 1 0 3 4 4 5 7 7 6 8 7 14 15 16
9 3 11 14 6 4 3 1 1 4 6 4 2 5 4 3 3 2 2 1 4 2 5 1 4 4 2 3 2 2 5 6 5 5 1 2 5 1 2 3 5 7 16 17 17
7 4 10 9 3 2 4 3 1 4 5 5 8 6 4 2 3 2 2 3 12 2 4 3 2 5 4 2 1 5 5 6 3 1 7 4 5 3 1 4 6 9 10 15 17
4 3 6 10 6 3 2 3 3 3 3 3 2 2 4 6 6 3 2 1 15 7 4 5 3 3 4 0 7 8 6 13 9 3 4 11 3 4 4 4 3 6 11 15 17
5 2 2 2 5 4 2 2 3 4 5 7 5 6 4 5 3 4 3 2 7 9 3 3 3 2 3 3 3 9 12 16 21 18 15 13 11 7 5 6 8 7 11 14 17
1 4 4 2 3 3 5 4 4 5 4 3 4 4 4 3 2 3 1 3 2 3 5 1 2 3 4 4 1 3 9 14 15 10 8 5 5 7 8 5 7 9 12 13 14
3 4 2 3 2 3 2 2 4 3 4 4 1 2 4 0 5 9 10 5 2 2 4 4 4 2 2 4 2 6 8 11 7 6 5 15 7 6 5 8 18 20 13 15 15
Wind_Direction
308 305 303 302 306 292 290 293 302 284 270 262 268 246 245 236 232 212 220 228 222 225 230 230 231 225 208 196 187 171 88 182 211 156 184 162 143 160 164 146 162 190 182 182 161
305 301 297 295 293 289 292 294 303 280 272 266 261 251 246 238 238 215 218 218 230 220 227 222 216 203 191 192 179 153 154 205 207 182 179 176 164 154 154 151 176 179 178 164 166
309 303 297 293 289 294 285 285 287 286 274 269 261 245 244 235 234 229 222 221 222 233 213 216 212 205 190 181 180 175 192 198 235 207 181 162 163 164 138 222 196 188 171 168 172
307 301 296 291 292 289 285 290 288 300 274 265 253 235 230 229 225 214 207 217 219 237 205 192 204 209 167 178 179 149 220 180 298 194 173 164 158 168 169 180 207 198 183 173 178
308 301 297 294 291 287 289 285 291 289 273 271 243 241 268 216 217 187 181 195 208 215 206 187 182 199 170 153 144 164 138 133 261 217 188 161 169 185 192 186 188 190 182 180 184
307 302 297 296 293 286 294 290 291 298 274 261 243 235 275 217 228 212 210 172 181 190 205 210 201 208 167 181 137 114 119 98 80 185 163 150 146 164 193 186 173 184 185 186 189
304 302 298 296 291 287 295 291 296 300 267 289 258 250 234 209 213 211 213 184 198 199 184 214 202 178 160 143 172 73 125 78 141 205 145 140 46 217 183 180 176 186 187 190 193
303 301 302 295 290 292 293 295 296 305 289 290 255 231 226 193 167 179 183 174 184 194 209 210 192 173 192 127 67 140 323 114 165 155 160 174 211 226 179 180 184 189 190 193 197
301 302 301 293 293 295 298 299 301 300 278 282 237 234 197 154 152 143 177 171 162 183 184 181 164 138 165 140 111 0 148 205 322 130 147 180 211 187 186 186 190 194 196 198 201
299 298 299 295 291 303 308 308 309 289 274 250 236 230 166 162 161 128 159 172 142 153 137 157 143 124 208 181 195 152 130 239 216 212 131 169 223 181 186 190 200 201 203 204 207
297 290 296 295 297 312 326 339 1 327 345 3 283 159 148 159 138 143 150 145 139 142 165 152 140 187 182 197 145 144 140 188 177 324 190 198 214 198 193 201 210 212 209 210 215
288 278 286 289 316 323 339 359 5 317 308 342 152 139 150 155 123 140 147 127 143 132 129 127 182 171 144 150 166 149 164 126 9 18 135 151 241 226 200 216 216 216 215 217 218
269 265 268 297 321 333 330 333 336 344 277 314 307 128 146 150 127 156 150 129 104 87 199 175 145 159 153 151 169 184 184 165 163 131 63 139 272 193 231 229 226 225 227 225 222
211 220 296 314 315 335 310 337 340 303 247 332 332 54 137 131 85 155 137 123 86 97 55 106 149 171 151 156 111 180 171 153 128 123 217 324 244 232 206 215 219 226 225 228 226
128 126 350 10 344 331 317 330 332 304 259 24 346 110 117 158 131 171 135 103 112 120 94 92 155 153 164 190 123 43 117 169 117 95 36 312 234 261 126 218 228 230 225 228 227
64 57 358 339 328 350 325 317 349 244 359 20 346 98 99 57 100 125 123 94 102 68 59 34 325 121 114 105 108 148 94 64 53 113 229 202 186 247 196 199 213 226 227 225 228
42 26 20 4 346 339 329 335 29 45 295 356 46 100 88 75 100 136 149 133 148 122 135 95 9 351 70 106 57 107 148 104 165 185 216 246 178 239 248 230 212 207 220 225 229
35 41 21 38 333 324 331 54 44 331 342 333 119 62 84 34 37 144 141 132 216 88 126 138 150 201 197 160 174 152 178 163 182 196 175 101 223 237 215 249 228 211 204 212 215
5 345 6 4 342 338 38 56 42 321 302 312 342 83 88 54 100 104 146 148 185 215 128 139 70 119 290 142 217 161 196 140 102 1 85 196 278 301 230 252 236 225 218 219 214
345 323 332 344 353 358 71 105 9 282 307 293 22 14 101 91 78 86 127 150 140 232 62 151 113 78 74 74 34 67 125 137 329 129 212 280 264 227 232 226 199 221 223 212 206
341 325 349 347 357 52 96 125 239 301 22 20 12 45 76 102 74 63 100 93 206 137 94 131 107 138 129 211 185 123 155 92 294 154 174 156 247 218 209 220 215 201 219 214 206
330 6 346 358 45 18 52 119 320 329 27 36 23 22 355 88 72 77 98 337 130 141 110 90 106 130 126 334 141 74 166 175 178 203 87 141 284 122 215 296 266 237 208 203 199
334 330 358 8 83 16 304 40 79 356 28 42 17 18 3 40 116 110 167 24 152 75 131 151 125 114 124 346 45 198 210 182 91 59 194 165 242 344 290 286 266 253 212 194 197
343 16 10 50 61 105 31 351 356 358 68 12 41 9 22 18 22 115 128 314 171 161 60 81 136 181 179 217 132 181 181 193 182 191 140 225 173 260 242 247 261 204 192 194 206
17 84 25 347 4 5 24 337 6 7 27 30 25 35 41 22 40 25 2 103 127 149 114 129 117 346 34 27 84 166 180 183 198 208 207 231 200 232 180 192 207 187 194 207 210
63 142 96 82 342 357 355 342 22 339 354 24 75 349 46 73 78 32 356 16 124 156 175 256 129 123 359 349 306 241 213 206 215 230 260 140 220 247 267 190 186 201 198 205 212
112 109 95 14 20 57 277 306 355 324 10 43 43 17 30 233 208 154 108 117 55 147 152 143 138 102 230 348 337 297 219 209 224 215 179 239 197 178 231 237 244 236 221 223 223